User: anonymous   Login
Location: Muenchen
(48.1800°N, 11.5800°E)
Time: 20:40:44
(UTC+02:00)
Language:

Iridium 37 - Orbit

View from above orbital plane
View from above orbital plane
View from above satellite
View from above satellite

Ground track
Ground track

The orbit data is extracted from the following two-line orbital elements,

1 24968U 97056D   17202.85447561 +.00000138 +00000-0 +42348-4 0  9995
2 24968 086.3978 304.3842 0002313 093.0937 267.0523 14.34219058037299
Epoch (UTC): 21 July 2017 20:30:26
Eccentricity: 0.0002313
inclination: 86.3978°
perigee height: 776 km
apogee height: 779 km
right ascension of ascending node: 304.3842°
argument of perigee: 93.0937°
revolutions per day: 14.34219058
mean anomaly at epoch: 267.0523°
orbit number at epoch: 3729

The dashed part of the orbit path shows where the satellite is in the earth's shadow,  

DLR